Regional Weather Roundup
Issued by NWS

Home | Current Version | Previous Version | Graphics & Text | Print | Product List | Glossary On
Versions: 1 2 3 4 5 6 7 8 9 10 11 12 13 14 15 16 17 18 19 20 21 22 23 24 25 26 27 28 29 30 31 32 33 34 35 36 37 38 39 40 41 42 43 44 45 46 47 48 49 50
000
ASUS45 KCYS 090610
RWRWY

WYOMING REGIONAL WEATHER ROUNDUP
NATIONAL WEATHER SERVICE CHEYENNE WY
1100 PM MST MON FEB 08 2016

NOTE:  "FAIR" INDICATES FEW OR NO CLOUDS BELOW 12,000 FEET
WITH NO SIGNIFICANT WEATHER AND/OR OBSTRUCTIONS TO VISIBILITY.

WYZ001-090700-
YELLOWSTONE NATIONAL PARK

CITY           SKY/WX    TMP DP  RH WIND       PRES   REMARKS
LK YELLOWSTONE   N/A     15  11  83 CALM      30.57S
6HR MIN TEMP:  15; 6HR MAX TEMP:  33;

W YELLOWSTONE  NOT AVBL

$$
WYZ002>013-054>058-071-098>099-090700-
NORTHERN WYOMING

CITY           SKY/WX    TMP DP  RH WIND       PRES   REMARKS
JACKSON        FAIR      10   9  92 N6        30.57F WCI   1
CODY           FAIR      28  19  69 CALM      30.34S
GREYBULL       FAIR      24  19  81 N5        30.37S WCI  18
6HR MIN TEMP:  24; 6HR MAX TEMP:  42;

WORLAND        FAIR      22  19  89 CALM      30.36F
6HR MIN TEMP:  21; 6HR MAX TEMP:  42;

SHERIDAN       FAIR      37  27  67 W7        30.29R WCI  32
6HR MIN TEMP:  34; 6HR MAX TEMP:  45;

BUFFALO        FAIR      42  26  53 N7        30.28F
6HR MIN TEMP:  42; 6HR MAX TEMP:  46;

GILLETTE       CLOUDY    36  27  69 W14       30.25F WCI  27
6HR MIN TEMP:  32; 6HR MAX TEMP:  40;

HULETT         FAIR      36  25  64 SW6       30.25S WCI  31
NEWCASTLE      FAIR      30  23  74 NW13      30.24S WCI  20

$$
WYZ014>020-022>026-101>103-090700-
CENTRAL WYOMING

CITY           SKY/WX    TMP DP  RH WIND       PRES   REMARKS
BIG PINEY      FAIR      27  21  78 NE15      30.49S WCI  15
6HR MIN TEMP:  25; 6HR MAX TEMP:  36;

PINEDALE       FAIR      30  23  74 NW16      30.48S WCI  19
DUBOIS         FAIR      36  21  55 W33G39    30.42S WCI  22
LANDER         FAIR      24  19  81 CALM      30.37F
6HR MIN TEMP:  20; 6HR MAX TEMP:  33;

RIVERTON       FAIR      22  16  78 SW7       30.38F WCI  13
6HR MIN TEMP:  22; 6HR MAX TEMP:  32;

CASPER         FAIR      32  20  61 SW18      30.35S WCI  20
6HR MIN TEMP:  30; 6HR MAX TEMP:  36;

DOUGLAS        FAIR      30  22  72 NW12        N/A  WCI  20
6HR MIN TEMP:  30; 6HR MAX TEMP:  39;


$$
WYZ021-027>030-104>119-090700-
SOUTHERN WYOMING

CITY           SKY/WX    TMP DP  RH WIND       PRES   REMARKS
EVANSTON       FAIR      27  17  66 SW7       30.58S WCI  19
6HR MIN TEMP:  25; 6HR MAX TEMP:  34;

FORT BRIDGER   CLEAR     34  27  75 W21G28    30.57S WCI  22
ROCK SPRINGS   FAIR      28  22  78 SW20      30.49R WCI  15
6HR MIN TEMP:  28; 6HR MAX TEMP:  34;

DIXON          FAIR      10   8  89 E5        30.54S WCI   2
RAWLINS        FAIR      27  18  69 SW20      30.43S WCI  13
6HR MIN TEMP:  26; 6HR MAX TEMP:  32;

SARATOGA       FAIR      16  14  93 CALM      30.45F
LARAMIE        FAIR      26  16  65 CALM      30.35F
6HR MIN TEMP:  23; 6HR MAX TEMP:  34;

CHEYENNE       FAIR      37  20  50 NW21G31   30.29F WCI  26
6HR MIN TEMP:  36; 6HR MAX TEMP:  40;

TORRINGTON     FAIR      35  25  66 NW14      30.26F WCI  26
6HR MIN TEMP:  33; 6HR MAX TEMP:  44;

PINE BLUFFS    FAIR      36  25  64 NW22G30   30.28S WCI  24

$$




USA.gov is the U.S. government's official web portal to all federal, state and local government web resources and services.